Regional Weather Roundup
Issued by NWS

Home | Current Version | Previous Version | Text Only | Print | Product List | Glossary On
Versions: 1 2 3 4 5 6 7 8 9 10 11 12 13 14 15 16 17 18 19 20 21 22 23 24 25 26 27 28 29 30 31 32 33 34 35 36 37 38 39 40 41 42 43 44 45 46 47 48 49 50
000
ASUS45 KREV 290010
RWRNV
NEVADA REGIONAL WEATHER ROUNDUP
NATIONAL WEATHER SERVICE RENO NV
500 PM PDT THU AUG 28 2014

NOTE: "FAIR" INDICATES FEW OR NO CLOUDS BELOW 12,000 FEET WITH NO
SIGNIFICANT WEATHER AND/OR OBSTRUCTIONS TO VISIBILITY.

NVZ001-003-004-290100-
WESTERN NEVADA

CITY           SKY/WX    TMP DP  RH WIND       PRES   REMARKS
RENO           MOSUNNY   94  37  13 N10       30.06F
6HR MIN TEMP:  80; 6HR MAX TEMP:  95;

CARSON CITY    FAIR      91  36  14 W12       30.09F
MINDEN           N/A    N/A N/A N/A MISG        N/A
SLIDE MTN        N/A     68  43  40 W13         N/A
PYRAMID LAKE     N/A     84 N/A N/A N6          N/A
FALLON         MOSUNNY   95  28   9 VRB6      30.03F
6HR MIN TEMP:  84; 6HR MAX TEMP:  96;

LOVELOCK       SUNNY     93  37  14 S7        30.03F
6HR MIN TEMP:  83; 6HR MAX TEMP:  94;

HAWTHORNE      SUNNY     93  28  10 W12       30.04F
$$

NVZ002-CAZ072-073-290100-
NORTHERN AND CENTRAL SIERRA

CITY           SKY/WX    TMP DP  RH WIND       PRES   REMARKS
S. LAKE TAHOE  SUNNY     82  39  21 CALM      30.23F
6HR MIN TEMP:  74; 6HR MAX TEMP:  84;

TRUCKEE        MOSUNNY   82  41  23 W12       30.21F
                   6HR MAX TEMP:  84;

SQUAW VLY 8000 NOT AVBL
SUSANVILLE     SUNNY     90  34  13 CALM      30.07
BLUE CANYON    SUNNY     79  41  25 VRB6      30.23F
MAMMOTH LAKES  FAIR      84  27  12 NW16G24   30.27F
BRIDGEPORT     FAIR      84  36  18 SW10      30.23S
$$

NVZ030-031-036-290100-
NORTHERN NEVADA

CITY           SKY/WX    TMP DP  RH WIND       PRES   REMARKS
ELKO           SUNNY     87  29  12 SW13G18   30.10F
6HR MIN TEMP:  78; 6HR MAX TEMP:  89;

WINNEMUCCA     SUNNY     92  31  11 N7        30.05F
6HR MIN TEMP:  83; 6HR MAX TEMP:  93;

WENDOVER       SUNNY     86  37  17 SE9       30.09F
$$

NVZ035-037-290100-
CENTRAL NEVADA

CITY           SKY/WX    TMP DP  RH WIND       PRES   REMARKS
ELY            SUNNY     82  27  13 VRB6      30.21F
6HR MIN TEMP:  75; 6HR MAX TEMP:  83;

EUREKA           N/A     85  25  11 NE6       30.18F
6HR MIN TEMP:  78; 6HR MAX TEMP:  87;

$$

NVZ013-014-290100-
SOUTH CENTRAL NEVADA

CITY           SKY/WX    TMP DP  RH WIND       PRES   REMARKS
TONOPAH        SUNNY     89  24   9 N10       30.15F
6HR MIN TEMP:  79; 6HR MAX TEMP:  90;

$$

NVZ017-020-022-290100-
SOUTHERN NEVADA

CITY           SKY/WX    TMP DP  RH WIND       PRES   REMARKS
LAS VEGAS      SUNNY    102  31   8 S5        29.86F
6HR MIN TEMP:  90; 6HR MAX TEMP: 102;

N. LAS VEGAS   SUNNY    100  29   8 VRB6      29.89F
6HR MIN TEMP:  90; 6HR MAX TEMP: 100;

NELLIS AFB     SUNNY    100  35  10 VRB3      29.87F
6HR MIN TEMP:  92; 6HR MAX TEMP: 101;

HENDERSON      SUNNY    101  31   8 SW9       29.93F
6HR MIN TEMP:  90; 6HR MAX TEMP: 103;

MERCURY        SUNNY     97  24   7 CALM      29.99F
6HR MIN TEMP:  88; 6HR MAX TEMP:  97;

$$



USA.gov is the U.S. government's official web portal to all federal, state and local government web resources and services.